Needles, CA

8:15 AM PST on December 05, 2016 (GMT -0800)
Needles

Weather History for KEED - February, 2012

Change the Weather History Date:

Saturday, February 11, 2012

  Actual Average Record
Temperature  
Mean Temperature 67 °F 58 °F  
Max Temperature 79 °F 69 °F 84 °F (1971)
Min Temperature 55 °F 46 °F 30 °F (1933)
Degree Days  
Heating Degree Days 0    
Cooling Degree Days 2    
Growing Degree Days 17 (Base 50)    
Moisture  
Dew Point 24 °F    
Average Humidity 20    
Maximum Humidity 31    
Minimum Humidity 10    
Precipitation  
Precipitation 0.00 in 0.03 in 1.22 in (2005)
Month to date precipitation 0.30  
Year to date precipitation 1.02  
Sea Level Pressure  
Sea Level Pressure 29.75 in    
Wind  
Wind Speed 8 mph (West)    
Max Wind Speed 17 mph    
Max Gust Speed 25 mph    
Visibility 10 miles    
Events      
T = Trace of Precipitation, MM = Missing Value Source: NWS Daily Summary

Daily Weather History Graph

Daily Weather History Graph

Search for Another Location

Airport or City:

Trip Planner

Search our weather history database for the weather conditions in past years. The results will help you decide how hot, cold, wet, or windy it might be!

Date:

Astronomy

Feb. 11, 2012 Rise Set
Actual Time 6:28 AM PST 5:17 PM PST
Civil Twilight 6:02 AM PST 5:43 PM PST
Nautical Twilight 5:32 AM PST 6:13 PM PST
Astronomical Twilight 5:03 AM PST 6:42 PM PST
Moon 9:54 PM PST (2/11) 8:26 AM PST (2/11)
Length of Visible Light 11h 40m
Length of Day
10h 48m
Waning Gibbous, 81% of the Moon is Illuminated
Feb 11
Waning Gibbous
Feb 14
Last Quarter
Feb 21
New
Feb 29
First Quarter
Mar 8
Full

Hourly Weather History & Observations

Time (PST) Temp. Dew Point Humidity Pressure Visibility Wind Dir Wind Speed Gust Speed Precip Events Conditions
12:56 AM 60.1 °F 23.0 °F 24% 29.90 in 10.0 mi Calm Calm - N/A   Clear
1:56 AM 59.0 °F 23.0 °F 25% 29.89 in 10.0 mi West 6.9 mph - N/A   Clear
2:56 AM 55.9 °F 23.0 °F 28% 29.87 in 10.0 mi Calm Calm - N/A   Clear
3:56 AM 57.0 °F 23.0 °F 27% 29.86 in 10.0 mi NW 4.6 mph - N/A   Clear
4:56 AM 55.0 °F 23.0 °F 29% 29.85 in 10.0 mi WNW 4.6 mph - N/A   Clear
5:56 AM 55.9 °F 24.1 °F 29% 29.85 in 10.0 mi WSW 6.9 mph - N/A   Clear
6:56 AM 57.9 °F 25.0 °F 28% 29.85 in 10.0 mi Calm Calm - N/A   Clear
7:56 AM 63.0 °F 26.1 °F 25% 29.85 in 10.0 mi Calm Calm - N/A   Clear
8:56 AM 69.1 °F 26.1 °F 20% 29.83 in 10.0 mi East 4.6 mph - N/A   Clear
9:56 AM 71.1 °F 26.1 °F 19% 29.82 in 10.0 mi East 5.8 mph - N/A   Clear
10:56 AM 75.9 °F 23.0 °F 14% 29.80 in 10.0 mi South 13.8 mph 32.2 mph N/A   Clear
11:56 AM 78.1 °F 21.9 °F 12% 29.76 in 10.0 mi SSW 13.8 mph 24.2 mph N/A   Clear
12:56 PM 79.0 °F 21.9 °F 12% 29.71 in 10.0 mi SW 15.0 mph 24.2 mph N/A   Clear
1:56 PM 79.0 °F 17.1 °F 10% 29.69 in 10.0 mi South 13.8 mph 23.0 mph N/A   Clear
2:56 PM 78.1 °F 19.0 °F 11% 29.68 in 10.0 mi West 16.1 mph - N/A   Clear
3:56 PM 75.9 °F 19.9 °F 12% 29.66 in 10.0 mi West 13.8 mph 21.9 mph N/A   Clear
4:56 PM 73.9 °F 21.9 °F 14% 29.66 in 10.0 mi West 13.8 mph - N/A   Clear
5:56 PM 71.1 °F 27.0 °F 19% 29.68 in 10.0 mi West 8.1 mph - N/A   Clear
6:56 PM 68.0 °F 30.0 °F 24% 29.68 in 10.0 mi NW 17.3 mph 25.3 mph N/A   Clear
7:56 PM 66.0 °F 30.0 °F 26% 29.69 in 10.0 mi WNW 9.2 mph - N/A   Partly Cloudy
8:56 PM 64.9 °F 28.9 °F 26% 29.71 in 10.0 mi SW 4.6 mph - N/A   Clear
9:56 PM 63.0 °F 30.0 °F 29% 29.72 in 10.0 mi West 3.5 mph - N/A   Clear
10:56 PM 61.0 °F 30.0 °F 31% 29.72 in 10.0 mi West 15.0 mph - N/A   Partly Cloudy
11:56 PM 61.0 °F 30.0 °F 31% 29.73 in 10.0 mi WNW 15.0 mph 18.4 mph N/A   Scattered Clouds